PRISMA (MANGO)

Satellite information

Favourite Embed

Satellite Type and Status

PAYLOADIN ORBIT

Key statistics

Satellite PRISMA (MANGO) at a glance.

Uptime

5555

Days in orbit

Revolutions

≈ 14.6

Per day

Orbit

SSO

Sun Synchronous Orbit

Inclination

98.0

Latest

Satellite identification and parameters

Extended collection of information and parameters for PRISMA (MANGO).

Object identification

Identified? True

Debris? False

Object name: PRISMA (MANGO)

International designator: 2010-028B

Object number (NORAD): 36599

Object ID (CCSDS): 36599

Country: SWEDEN (SWED)

Current information (Y/N): Y

RCS size: MEDIUM

Orbital parameters

Period: 98.718 minutes

Inclination: 98.0409 deg

SMA: 7075.508 km

Apoapsis: 735.71 km

Periapsis: 659.036 km

RAAN: 84.8347 deg

Eccentricy: 0.00541822

Argument of periapsis: 42.669 deg

Mean anomaly: 317.8699 deg

Mean motion: 14.58701134 rev/day

Mean motion (dot): 0.00000502 rev/day2

B* drag term: 0.00011522692 1/REarth

Two-line elements (TLE)

Creation date: Aug. 28, 2025, 11:13 p.m.

Reference frame: TEME

Reference center: EARTH

Epoch: Aug. 28, 2025, 1:18 p.m. UTC

TLE line 0: 0 PRISMA (MANGO)

TLE line 1: 1 36599U 10028B 25240.55436430 .00000502 00000-0 11523-3 0 9998

TLE line 2: 2 36599 98.0409 84.8347 0054182 42.6690 317.8699 14.58701134806501

Live tracking on map

Real-time ground track for satellite PRISMA (MANGO).

In-orbit conjunctions

There are no conjunctions computed for PRISMA (MANGO), at the moment. Check back to stay up to date, as we update our databases every day.

Go to all conjunctions

Associated space launch

PRISMA (MANGO) was lifted into orbit during the mission ‘Dnepr 1 | Prisma-Mango, Prisma-Tango, Picard, BPA-1’, on board a Dnepr space rocket.

The launch took place on June 15, 2010, 2:42 p.m. from 370/13.

For more information about the launch, click the button.

Launch to space Dnepr 1 | Prisma-Mango, Prisma-Tango, Picard, BPA-1
Dnepr 1 | Prisma-Mango, Prisma-Tango, Picard, BPA-1

Agency: N/A

Status: Launch Successful

Launch date: June 15, 2010, 2:42 p.m. UTC

Rocket: Dnepr

Launch pad: 370/13

Location: Dombarovskiy, Russian Federation

...

Latest news about this satellite

There are no fresh news available about this satellite. Check back as we update our databases every day.


Newsletter sign-up

Weekly statistics, charts and insights to help you stay on top of the space industry.